星链-2499 (STARLINK-2499 )

导读 | 豆包AI

STARLINK-2499是美国太空探索技术公司(SpaceX)于2021年5月4日发射的星链(Starlink)卫星,属于星链星座组网卫星,运行于近地低轨道,为全球提供高速低延迟宽带互联网服务,尤其服务传统基础设施覆盖不足的偏远地区,单星设计寿命5-7年,退役后可主动离轨再入大气层焚毁。

基本信息
目录编号:
48377
目录名称:
STARLINK-2499
国际标识:
2021-038AA
轨道中心:
EARTH
卫星名称:
星链-2499
卫星全名:
星链-2499 (STARLINK-2499 )
卫星状态:
在轨 (已飞行1822 天)
发射日期:
2021-05-04 UTC
国别 :
美国 (US)
星等 :
--
轨道信息
数据来源 国际轨道数据
星历时间: 2026-04-30T12:49:18+0800
8小时前
查看轨道信息
半长轴: 6848.885km
偏心率: 0.0001675
轨道倾角: 53.159°
近地点辐角 83.603°
升交点赤经 108.390°
平近点角 276.516°
近地点: 469.6km
远地点: 471.896km
周期: 94.013分钟
每日圈数: 15.316976
详细信息
固有亮度:
5
最大亮度:
2.5
卫星平台:
Starlink V1.0
覆盖范围:
全球
运营商:
太空探索技术公司
运营商所在国:
美国
制造商(研发单位):
太空探索技术公司
制造商所在国:
美国
使用方式:
暂无
卫星简介
星链(Starlink)计划是由太空探索技术公司(SpaceX)提出的一个巨型低轨卫星互联网星座项目,计划在2019年至2024年间在太空搭建由约1.2万颗卫星组成的“星链”网络,其中1584颗将部署在地球上空550千米处的近地轨道,并从2020年开始工作。该卫星仍在工作。
2D轨道图
3D轨道图
轨道高度分析图
轨道倾角分析图
轨道综合分析图
查看轨道综合分析图